�������l�o���
Date,Time,MP-1(��Sv/h),MP-2(��Sv/h),MP-3(��Sv/h),MP-4(��Sv/h),MP-5(��Sv/h),MP-6(��Sv/h),MP-7(��Sv/h),MP-8(��Sv/h),����,����(m/s),���J
2021/05/11,00:00,0.642,0.954,0.597,1.174,0.831,0.376,0.657,0.614,���k��,3.8,��
2021/05/11,00:10,0.642,0.956,0.596,1.173,0.834,0.376,0.658,0.615,���k��,4.3,��
2021/05/11,00:20,0.644,0.954,0.597,1.173,0.834,0.376,0.656,0.616,���k��,5.0,��
2021/05/11,00:30,0.646,0.954,0.596,1.173,0.834,0.375,0.657,0.617,���k��,4.8,��
2021/05/11,00:40,0.643,0.956,0.595,1.175,0.832,0.377,0.658,0.615,���k��,5.6,��
2021/05/11,00:50,0.646,0.955,0.597,1.174,0.832,0.375,0.658,0.615,���k��,5.1,��
2021/05/11,01:00,0.646,0.953,0.597,1.175,0.833,0.377,0.657,0.615,���k��,5.3,��
2021/05/11,01:10,0.644,0.954,0.596,1.175,0.831,0.375,0.659,0.614,�k��,4.6,��
2021/05/11,01:20,0.643,0.954,0.595,1.174,0.834,0.375,0.656,0.615,�k��,5.3,��
2021/05/11,01:30,0.643,0.957,0.597,1.174,0.834,0.376,0.656,0.615,���k��,4.1,��
2021/05/11,01:40,0.644,0.954,0.598,1.174,0.833,0.378,0.656,0.615,�k��,4.5,��
2021/05/11,01:50,0.642,0.956,0.595,1.174,0.832,0.377,0.657,0.614,�k��,3.8,��
2021/05/11,02:00,0.643,0.956,0.596,1.174,0.835,0.377,0.657,0.616,���k��,4.4,��
2021/05/11,02:10,0.642,0.953,0.597,1.172,0.833,0.378,0.657,0.615,�k��,4.5,��
2021/05/11,02:20,0.643,0.954,0.596,1.174,0.830,0.377,0.659,0.613,���k��,4.2,��
2021/05/11,02:30,0.645,0.954,0.596,1.172,0.833,0.375,0.657,0.615,���k��,5.0,��
2021/05/11,02:40,0.644,0.953,0.596,1.172,0.833,0.375,0.655,0.614,���k��,4.0,��
2021/05/11,02:50,0.642,0.953,0.594,1.171,0.833,0.376,0.656,0.614,�k��,3.9,��
2021/05/11,03:00,0.642,0.955,0.596,1.176,0.832,0.376,0.657,0.614,�k��,2.3,��
2021/05/11,03:10,0.644,0.952,0.596,1.174,0.831,0.374,0.657,0.614,�k��,2.3,��
2021/05/11,03:20,0.643,0.953,0.596,1.172,0.831,0.376,0.657,0.615,�k�k��,2.9,��
2021/05/11,03:30,0.643,0.953,0.595,1.175,0.830,0.377,0.661,0.614,�k��,3.0,��
2021/05/11,03:40,0.643,0.953,0.595,1.172,0.833,0.374,0.659,0.613,�k�k��,4.0,��
2021/05/11,03:50,0.641,0.953,0.596,1.173,0.831,0.376,0.659,0.615,�k�k��,3.6,��
2021/05/11,04:00,0.644,0.952,0.594,1.175,0.832,0.375,0.658,0.615,�k,3.4,��
2021/05/11,04:10,0.642,0.954,0.595,1.173,0.832,0.375,0.658,0.614,�k,4.0,��
2021/05/11,04:20,0.643,0.954,0.594,1.172,0.832,0.376,0.658,0.615,�k,2.9,��
2021/05/11,04:30,0.643,0.954,0.595,1.174,0.831,0.376,0.657,0.615,�k,3.3,��
2021/05/11,04:40,0.642,0.953,0.596,1.173,0.831,0.376,0.657,0.614,�k�k��,4.3,��
2021/05/11,04:50,0.644,0.954,0.594,1.172,0.831,0.375,0.659,0.615,�k�k��,5.7,��
2021/05/11,05:00,0.642,0.951,0.593,1.174,0.832,0.375,0.658,0.613,�k��,6.2,��
2021/05/11,05:10,0.643,0.952,0.596,1.172,0.831,0.374,0.658,0.614,�k��,5.4,��
2021/05/11,05:20,0.643,0.953,0.597,1.174,0.832,0.375,0.659,0.614,���k��,6.4,��
2021/05/11,05:30,0.641,0.954,0.596,1.172,0.833,0.375,0.656,0.614,�k��,5.1,��
2021/05/11,05:40,0.642,0.953,0.596,1.174,0.832,0.376,0.659,0.613,�k��,4.7,��
2021/05/11,05:50,0.643,0.955,0.597,1.174,0.831,0.376,0.659,0.613,�k��,4.3,��
2021/05/11,06:00,0.643,0.955,0.596,1.172,0.831,0.375,0.659,0.614,�k��,6.1,��
2021/05/11,06:10,0.644,0.955,0.596,1.174,0.833,0.376,0.657,0.614,�k��,4.6,��
2021/05/11,06:20,0.641,0.954,0.596,1.174,0.831,0.376,0.658,0.614,�k��,4.4,��
2021/05/11,06:30,0.645,0.955,0.597,1.172,0.833,0.375,0.658,0.615,�k��,5.2,��
2021/05/11,06:40,0.644,0.955,0.596,1.173,0.833,0.375,0.658,0.614,�k�k��,4.6,��
2021/05/11,06:50,0.645,0.952,0.597,1.175,0.831,0.375,0.656,0.615,�k�k��,3.8,��
2021/05/11,07:00,0.645,0.953,0.596,1.174,0.833,0.375,0.658,0.615,�k�k��,3.4,��
2021/05/11,07:10,0.643,0.951,0.598,1.173,0.831,0.373,0.660,0.616,�k�k��,3.2,��
2021/05/11,07:20,0.644,0.950,0.597,1.172,0.831,0.374,0.657,0.615,�k�k��,3.2,��
2021/05/11,07:30,0.643,0.951,0.598,1.173,0.832,0.374,0.657,0.615,�k�k��,3.3,��
2021/05/11,07:40,0.644,0.953,0.595,1.173,0.833,0.374,0.657,0.616,�k��,2.6,��
2021/05/11,07:50,0.643,0.953,0.596,1.175,0.832,0.374,0.656,0.614,�k�k��,6.5,��
2021/05/11,08:00,0.643,0.952,0.596,1.175,0.833,0.373,0.659,0.614,�k�k��,6.3,��
2021/05/11,08:10,0.641,0.953,0.595,1.174,0.831,0.375,0.658,0.612,�k�k��,7.1,��
2021/05/11,08:20,0.641,0.953,0.593,1.173,0.832,0.375,0.657,0.612,�k�k��,7.7,��
2021/05/11,08:30,0.640,0.954,0.596,1.174,0.832,0.375,0.658,0.612,�k�k��,5.6,��
2021/05/11,08:40,0.643,0.950,0.595,1.174,0.829,0.373,0.657,0.613,�k�k��,5.1,��
2021/05/11,08:50,0.642,0.949,0.595,1.174,0.832,0.373,0.656,0.611,�k�k��,5.6,��
2021/05/11,09:00,0.643,0.951,0.594,1.175,0.831,0.374,0.655,0.613,�k��,4.7,��
2021/05/11,09:10,0.642,0.950,0.594,1.176,0.831,0.375,0.657,0.613,�k��,5.5,��
2021/05/11,09:20,0.641,0.948,0.594,1.173,0.831,0.374,0.656,0.611,�k��,5.3,��
2021/05/11,09:30,0.640,0.952,0.593,1.176,0.832,0.374,0.657,0.612,�k�k��,5.1,��
2021/05/11,09:40,0.640,0.948,0.593,1.175,0.832,0.375,0.656,0.611,�k��,5.0,��
2021/05/11,09:50,0.641,0.951,0.595,1.174,0.831,0.375,0.657,0.612,�k��,5.6,��
2021/05/11,10:00,0.641,0.947,0.594,1.175,0.832,0.375,0.658,0.612,���k��,5.1,��
2021/05/11,10:10,0.642,0.950,0.592,1.172,0.831,0.375,0.656,0.612,��,2.6,��
2021/05/11,10:20,0.640,0.950,0.593,1.175,0.832,0.374,0.656,0.613,�k��,4.1,��
2021/05/11,10:30,0.644,0.948,0.595,1.177,0.832,0.373,0.656,0.613,���k��,4.2,��
2021/05/11,10:40,0.641,0.948,0.593,1.177,0.832,0.374,0.658,0.611,��,3.9,��
2021/05/11,10:50,0.641,0.950,0.594,1.179,0.832,0.374,0.655,0.612,���쓌,3.9,��
2021/05/11,11:00,0.641,0.948,0.594,1.175,0.832,0.374,0.657,0.612,���쓌,3.6,��
2021/05/11,11:10,0.641,0.950,0.594,1.173,0.833,0.374,0.655,0.612,���쓌,3.1,��
2021/05/11,11:20,0.641,0.951,0.595,1.173,0.833,0.375,0.655,0.613,���쓌,4.0,��
2021/05/11,11:30,0.642,0.949,0.594,1.174,0.832,0.374,0.657,0.613,�쓌,3.0,��
2021/05/11,11:40,0.641,0.954,0.595,1.172,0.833,0.374,0.658,0.613,�쓌,4.9,��
2021/05/11,11:50,0.642,0.954,0.594,1.174,0.833,0.374,0.655,0.612,�쓌,4.3,��
2021/05/11,12:00,0.641,0.953,0.595,1.171,0.833,0.375,0.657,0.613,�쓌,4.7,��
2021/05/11,12:10,0.643,0.953,0.595,1.174,0.834,0.374,0.655,0.612,���쓌,3.2,��
2021/05/11,12:20,0.643,0.956,0.594,1.175,0.834,0.374,0.657,0.613,�쓌,4.5,��
2021/05/11,12:30,0.641,0.954,0.594,1.174,0.832,0.375,0.657,0.614,�쓌,5.3,��
2021/05/11,12:40,0.642,0.954,0.595,1.177,0.833,0.374,0.657,0.612,�쓌,4.8,��
2021/05/11,12:50,0.643,0.955,0.595,1.176,0.832,0.375,0.658,0.612,�쓌,4.2,��
2021/05/11,13:00,0.641,0.953,0.596,1.177,0.834,0.376,0.658,0.613,�쓌,4.8,��
2021/05/11,13:10,0.643,0.953,0.595,1.176,0.835,0.375,0.658,0.611,�쓌,4.6,��
2021/05/11,13:20,0.644,0.954,0.596,1.175,0.834,0.375,0.658,0.613,�쓌,4.4,��
2021/05/11,13:30,0.644,0.951,0.594,1.175,0.833,0.375,0.655,0.614,���쓌,4.3,��
2021/05/11,13:40,0.645,0.953,0.593,1.174,0.836,0.374,0.657,0.612,�쓌,4.6,��
2021/05/11,13:50,0.646,0.954,0.597,1.173,0.836,0.375,0.657,0.613,�쓌,4.0,��
2021/05/11,14:00,0.644,0.953,0.597,1.176,0.835,0.375,0.658,0.613,�쓌,3.9,��
2021/05/11,14:10,0.644,0.955,0.596,1.172,0.836,0.374,0.656,0.613,��쓌,4.8,��
2021/05/11,14:20,0.646,0.956,0.595,1.174,0.834,0.372,0.658,0.614,�쓌,4.5,��
2021/05/11,14:30,0.646,0.954,0.596,1.174,0.834,0.375,0.657,0.613,�쓌,6.2,��
2021/05/11,14:40,0.644,0.955,0.596,1.174,0.835,0.375,0.657,0.612,�쓌,6.1,��
2021/05/11,14:50,0.644,0.953,0.595,1.175,0.834,0.377,0.657,0.612,���쓌,4.6,��
2021/05/11,15:00,0.645,0.956,0.596,1.175,0.836,0.375,0.659,0.613,�쓌,5.0,��
2021/05/11,15:10,0.646,0.955,0.597,1.176,0.834,0.376,0.658,0.612,��쓌,5.3,��
2021/05/11,15:20,0.644,0.954,0.597,1.174,0.835,0.376,0.658,0.613,��쓌,5.4,��
2021/05/11,15:30,0.646,0.956,0.597,1.174,0.835,0.375,0.658,0.612,��쓌,7.1,��
2021/05/11,15:40,0.644,0.953,0.596,1.173,0.836,0.375,0.659,0.612,��쓌,6.9,��
2021/05/11,15:50,0.644,0.956,0.597,1.174,0.833,0.376,0.658,0.612,�쓌,5.3,��
2021/05/11,16:00,0.643,0.957,0.595,1.175,0.835,0.375,0.659,0.613,��쓌,5.5,��
2021/05/11,16:10,0.643,0.956,0.594,1.172,0.836,0.375,0.657,0.613,��쓌,4.6,��
2021/05/11,16:20,0.643,0.960,0.594,1.176,0.836,0.375,0.656,0.611,��쓌,5.6,��
2021/05/11,16:30,0.645,0.959,0.595,1.178,0.834,0.373,0.658,0.614,��쓌,5.5,��
2021/05/11,16:40,0.646,0.959,0.596,1.179,0.835,0.377,0.658,0.613,��쓌,5.4,��
2021/05/11,16:50,0.648,0.957,0.597,1.178,0.834,0.376,0.658,0.613,��쓌,5.1,��
2021/05/11,17:00,0.647,0.958,0.595,1.178,0.835,0.376,0.657,0.614,��쓌,6.9,��
2021/05/11,17:10,0.647,0.959,0.593,1.178,0.836,0.378,0.658,0.612,��쓌,6.4,��
2021/05/11,17:20,0.644,0.961,0.592,1.177,0.836,0.376,0.658,0.614,��쓌,4.8,��
2021/05/11,17:30,0.644,0.959,0.596,1.178,0.835,0.376,0.658,0.615,��쓌,4.5,��
2021/05/11,17:40,0.643,0.959,0.597,1.177,0.835,0.377,0.658,0.614,��쓌,4.3,��
2021/05/11,17:50,0.646,0.959,0.596,1.176,0.833,0.376,0.656,0.616,��,3.4,��
2021/05/11,18:00,0.644,0.960,0.595,1.177,0.834,0.377,0.658,0.615,��쓌,3.9,��
2021/05/11,18:10,0.647,0.959,0.595,1.177,0.833,0.375,0.657,0.615,��,3.8,��
2021/05/11,18:20,0.648,0.959,0.596,1.174,0.835,0.375,0.658,0.616,��,3.4,��
2021/05/11,18:30,0.649,0.960,0.595,1.175,0.835,0.377,0.657,0.614,��,4.3,��
2021/05/11,18:40,0.648,0.958,0.595,1.177,0.838,0.376,0.657,0.616,��,3.9,��
2021/05/11,18:50,0.648,0.959,0.599,1.175,0.837,0.377,0.657,0.615,��쐼,3.5,��
2021/05/11,19:00,0.648,0.960,0.597,1.177,0.838,0.376,0.657,0.615,��쐼,2.9,��
2021/05/11,19:10,0.648,0.962,0.596,1.178,0.836,0.378,0.659,0.616,��쐼,2.0,��
2021/05/11,19:20,0.654,0.958,0.598,1.175,0.839,0.376,0.658,0.615,��쐼,1.1,��
2021/05/11,19:30,0.649,0.959,0.597,1.175,0.836,0.375,0.658,0.614,��,3.4,��
2021/05/11,19:40,0.648,0.958,0.598,1.176,0.837,0.376,0.658,0.615,���쐼,1.7,��
2021/05/11,19:50,0.646,0.959,0.598,1.176,0.838,0.375,0.659,0.614,��쐼,1.5,��
2021/05/11,20:00,0.646,0.959,0.596,1.178,0.837,0.376,0.658,0.615,��쐼,0.9,��
2021/05/11,20:10,0.647,0.962,0.597,1.177,0.838,0.377,0.659,0.614,�쐼,1.2,��
2021/05/11,20:20,0.647,0.958,0.598,1.178,0.835,0.375,0.658,0.613,-,CALM,��
2021/05/11,20:30,0.648,0.959,0.597,1.178,0.835,0.377,0.659,0.613,��,2.0,��
2021/05/11,20:40,0.649,0.960,0.597,1.176,0.836,0.375,0.659,0.615,���k��,2.3,��
2021/05/11,20:50,0.646,0.960,0.597,1.178,0.836,0.376,0.659,0.615,�k,4.7,��
2021/05/11,21:00,0.648,0.958,0.597,1.177,0.835,0.377,0.659,0.614,�k�k��,4.4,��
2021/05/11,21:10,0.647,0.960,0.595,1.176,0.836,0.374,0.658,0.614,�k��,5.0,��
2021/05/11,21:20,0.647,0.958,0.597,1.177,0.837,0.377,0.657,0.615,�k��,5.9,��
2021/05/11,21:30,0.647,0.957,0.598,1.177,0.836,0.377,0.659,0.614,�k��,6.3,��
2021/05/11,21:40,0.648,0.957,0.595,1.174,0.835,0.375,0.659,0.614,�k��,4.9,��
2021/05/11,21:50,0.647,0.960,0.596,1.179,0.836,0.376,0.658,0.613,�k��,3.6,��
2021/05/11,22:00,0.647,0.958,0.596,1.177,0.835,0.375,0.659,0.615,���k��,5.0,��
2021/05/11,22:10,0.647,0.958,0.596,1.177,0.835,0.375,0.657,0.613,���k��,4.6,��
2021/05/11,22:20,0.648,0.958,0.598,1.177,0.836,0.375,0.658,0.615,�k��,3.0,��
2021/05/11,22:30,0.647,0.956,0.598,1.176,0.835,0.374,0.659,0.613,�k��,5.1,��
2021/05/11,22:40,0.647,0.956,0.597,1.176,0.835,0.375,0.657,0.613,�k��,5.3,��
2021/05/11,22:50,0.646,0.957,0.596,1.176,0.836,0.376,0.657,0.614,�k�k��,4.2,��
2021/05/11,23:00,0.648,0.957,0.597,1.177,0.834,0.374,0.658,0.615,�k,6.5,��
2021/05/11,23:10,0.648,0.957,0.597,1.177,0.836,0.375,0.658,0.614,�k,7.9,��
2021/05/11,23:20,0.647,0.957,0.595,1.176,0.836,0.376,0.659,0.614,�k,7.0,��
2021/05/11,23:30,0.648,0.957,0.597,1.177,0.837,0.375,0.658,0.614,�k,6.6,��
2021/05/11,23:40,0.645,0.959,0.596,1.175,0.836,0.374,0.657,0.613,�k,5.3,��
2021/05/11,23:50,0.646,0.958,0.596,1.176,0.835,0.375,0.658,0.615,�k,5.4,��
